Погода в Тукуруи

Бразилия     3°41′14″S   49°42′50″W
темп.,
°C
ветер,
м/с
пор.,
м/с
влажн.,
%
обл.,
%
осадки,
мм/ч
давл.,
гПа
погр.,
м
27 февраля, сб
сб2700:00+23всв119298 0.0 101137
03:00+23с119597 0.1 100952
06:00+22ссз019790 0.3 101046
09:00+25св138388 0.3 1011472
12:00+26в128091 0.1 1011382
15:00+28св238062 1.5 1007523
18:00+26св249134 2.8 1007203
21:00+23с129467 2.9 100938
28 февраля, вс
вс2800:00+23всв1296100 0.2 101066
03:00+23св1297100 0.3 100898
06:00+22св119897 0.1 100941
09:00+25всв148986 0.1 1011385
12:00+29в246866 0.1 10091025
15:00+28св238253 2.6 1005615
18:00+26всв129036 3.1 100569
21:00+24св119148 3.9 100731
1 марта, пн
пн100:00+23ссв1396100 0.0 1008127
03:00+22св1298100 0.0 100662
06:00+21всв129867 0.1 100761
09:00+25в258651 0.2 1009509
12:00+28в24795 2.1 1008912
15:00+28в128240 8.0 1004654
18:00+25ссв0193100 5.5 100525
21:00+24ссз1194100 9.4 100828
2 марта, вт
вт200:00+23ссв1397100 4.4 1009106
03:00+23всв2796100 8.1 1008310
06:00+22св1798100 1.4 1008402
09:00+23всв0198100 6.4 1011141
12:00+24ссв0193100 0.4 1011291
15:00+28ю0273100 0.4 1007822
18:00+26всв0185100 0.1 100740
21:00+23ссв1195100 2.6 101031
3 марта, ср
ср300:00+23ссв1294100 2.4 101251
03:00+22с1197100 2.7 101042
06:00+22ссв1198100 0.6 101144
09:00+25всв259093 0.6 1013528
12:00+29всв357178 0.8 10121278
15:00+28ссв248482 5.1 1008769
18:00+26с2692100 2.3 1008327
21:00+23с279582 2.4 1011209